Showing default

IRIDIUM 158, 43571

Orbit data source: Space-Track

IRIDIUM 158, 43571 is a payload satellite owned by Iridium (US) in LEO that was launched on Wed, 25 Jul 2018 UTC via an FALCON 9 launch vehicle from the Air Force Western Test Range (AFWTR). Payload-class satellites include a variety of spacecraft equipped with specific instruments for various scientific and technological missions. These include communications satellites like Starlink; space stations such as the ISS; scientific satellites like the Hubble; Earth observation satellites from companies like Planet Labs, Umbra, and HawkEye 360; GPS; miniature CubeSats for education and research; and military/defense satellites.

Loading next visibility...
Identifier
43571, 2018-061C
Orbit
LEO
Country
Flag of USUS
Related business
Manufacturer
NGIS SSG Gilbert
Mission
Operational Commercial Communications
Bus & Motor
ELITEBUS, Unknown motor
Mass
860 kg wet, 700 kg dry
Launch date (UTC)
2018-07-25 (8 years ago)
Launch vehicle
FALCON 9
Launch site
Air Force Western Test Range (AFWTR)
Object type
Payload
Rocket body
Debris
Shape & HBR
Trap Box + 2 Pan, 4.8 m
Radar Cross Section
10.154 m², Large (>1 m²)

Expand to show TLE details & history
Last TLE update: 12 hours ago

TLE from 12 hours ago
0 IRIDIUM 158
1 43571U 18061C   26123.89053844  .00000029  00000-0  31325-5 0  9991
2 43571  86.3949  75.2759 0002343  88.2782 271.8682 14.34217638407018
Epoch: 2026-05-03T21:22Z
TLE epoch observation values (Epoch: 2026-05-03T21:22:22.521Z)
Latitude
-0.00002°
Longitude
-107.10553°
Altitude
780.664 km
Speed
7.464 km/s
True Right ascension
05h 01m 06s
True Declination
0° 00' 00"
Sunlit
Object was in daylight at epoch
Visualization orbit readout
Latitude
Unknown
Longitude
Unknown
Altitude
Unknown
Speed
Unknown
Apparent Right ascension
Unknown
Apparent Declination
Unknown
Sunlit
N/A
Visualization observer readout
Local Sidereal Time
16:51:00
Azimuth
Unknown
Elevation
Unknown
Doppler factor
Unknown
Orbital elements
Apogee altitude
776.308 km
Perigee altitude
772.956 km
Semi-major axis
7,152.769 km
Eccentricity
0.00023
Inclination
86.3949°
RAAN
75.2759°
Arg. of periapsis
88.2782°
True anomaly
271.84137°
Mean anomaly
271.8682°
Eccentric anomaly
271.85478°
Mean motion
3.58783 °/min
Orbital period
100.34 mins
BSTAR
0.0000031325
Loading maneuver chart data...
Computing Atmospheric mass density...
Loading historical data...
Loading historical data...
Loading historical data...
Loading historical data...
Loading historical data...
Loading historical data...
Loading historical data...

Documentation

Showing up to 5 results
|